User: anonymous   Login
Location: Rometta
(44.2000°N, 10.0500°E)
Time: 01:22:47
(UTC+00:00)
Language:

COSMOS 2455 - Orbit

View from above orbital plane
View from above orbital plane
View from above satellite
View from above satellite

Ground track
Ground track

The orbit data is extracted from the following two-line orbital elements,

1 36095U 09063A   21111.67008827 -.00000048  00000-0  19453-4 0  9994
2 36095  67.1461 149.9147 0003648 256.5534 103.5144 13.96767717582395
Epoch (UTC): 21 April 2021 16:04:55
Eccentricity: 0.0003648
inclination: 67.1461°
perigee height: 902 km
apogee height: 907 km
right ascension of ascending node: 149.9147°
argument of perigee: 256.5534°
revolutions per day: 13.96767717
mean anomaly at epoch: 103.5144°
orbit number at epoch: 58239

The dashed part of the orbit path shows where the satellite is in the earth's shadow,  

DLR